Tracking 19817 objects as of 20-Aug-2019
HD Live streaming from Space Station
objects crossing your sky now

FENGYUN 1C DEB

Track FENGYUN 1C DEB now!
10-day predictions


NORAD ID: 37924
Int'l Code: 1999-025ENZ
Perigee: 801.9 km
Apogee: 880.8 km
Inclination: 98.9 °
Period: 101.6 minutes
Semi major axis: 7212 km
RCS: 0.0011 m2 (small)
Launch date: May 10, 1999
Source: People's Republic of China (PRC)
Launch site: Taiyaun Space Center, China (TSC)

Note: This is SATELLITE DEBRIS
aabbcc
Your satellite tracking list
Your tracking list is empty




NASA's NSSDC Master Catalog

Two Line Element Set (TLE):
1 37924U 99025ENZ 19228.33826388 +.00000557 +00000-0 +29319-3 0  9997
2 37924 098.9153 275.4379 0054737 206.3324 153.5066 14.17382193315841
Source of the keplerian elements: AFSPC